Location: Morlupo
(42.1333°N, 12.5000°E)
Time: 17:09:42
(UTC+00:00)

USA 234 - Pass Details

Date: 18 September 2020
Orbit: 1102 x 1106 km, 123.0° (Epoch: 16 October)

Event Time Altitude Azimuth Distance (km) Brightness Sun altitude
Rises 18:34:03 0° 51° (NE) 3,926 5.8 -15.5°
Reaches altitude 10° 18:36:37 10° 56° (NE) 2,966 5.2 -15.9°
Maximum altitude 18:43:00 53° 132° (SE) 1,328 3.3 -17.1°
Drops below altitude 10° 18:49:21 10° 208° (SSW) 2,955 5.6 -18.2°
Sets 18:51:54 0° 213° (SSW) 3,910 6.3 -18.6°
